N6GIW Weather Reports


time (UTC)temp
C
wind
direction
speed
KPH
gust
KPH
rain 1hr
cm
rain 24hr
cm
rain mn
cm
humidity
%
barometer
mb
20260504151004 12 109 0.0 3.2 0.00 0.00 0.00 51 1018.7
20260504150503 12 109 0.0 1.6 0.00 0.00 0.00 51 1018.6
20260504141003 10 205 4.8 4.8 0.00 0.00 0.00 57 1018.6
20260504140503 10 209 1.6 4.8 0.00 0.00 0.00 59 1018.7
20260504130502 8 187 0.0 1.6 0.00 0.00 0.00 60 1017.9
20260504110503 9 249 0.0 1.6 0.00 0.00 0.00 58 1017.4
20260504100502 11 253 0.0 0.0 0.00 0.00 0.00 55 1017.1
20260504082003 12 209 8.0 12.9 0.00 0.00 0.00 55 1018.1
20260504081004 12 207 9.7 19.3 0.00 0.00 0.00 54 1018.2
20260504080503 12 211 12.9 16.1 0.00 0.00 0.00 53 1017.8
20260504050503 15 240 0.0 4.8 0.00 0.00 0.00 44 1016.5
20260504045504 15 225 0.0 1.6 0.00 0.00 0.00 42 1016.3
20260504045003 15 236 0.0 1.6 0.00 0.00 0.00 41 1016.3
20260504044504 15 225 0.0 0.0 0.00 0.00 0.00 40 1016.3
20260504044003 15 230 0.0 0.0 0.00 0.00 0.00 41 1016.3
20260504042502 16 228 0.0 0.0 0.00 0.00 0.00 38 1016.3
20260504041503 16 237 0.0 0.0 0.00 0.00 0.00 33 1016.0
20260504041003 16 214 0.0 0.0 0.00 0.00 0.00 32 1016.0
20260504040503 16 218 0.0 0.0 0.00 0.00 0.00 32 1015.8
20260504035503 16 255 0.0 0.0 0.00 0.00 0.00 34 1016.0
20260504035003 16 249 0.0 0.0 0.00 0.00 0.00 36 1016.0
20260504034504 16 195 0.0 0.0 0.00 0.00 0.00 35 1015.9
20260504034003 16 187 0.0 0.0 0.00 0.00 0.00 34 1015.8
20260504033503 17 172 0.0 0.0 0.00 0.00 0.00 31 1016.0
20260504033003 17 183 0.0 0.0 0.00 0.00 0.00 29 1015.7
20260504032503 17 196 0.0 0.0 0.00 0.00 0.00 29 1015.9
20260504032003 17 186 0.0 0.0 0.00 0.00 0.00 28 1016.0
20260504031004 17 178 0.0 0.0 0.00 0.00 0.00 25 1015.8
20260504030503 17 169 0.0 0.0 0.00 0.00 0.00 24 1015.6
20260504025503 18 171 0.0 0.0 0.00 0.00 0.00 24 1015.8
20260504025003 18 165 0.0 0.0 0.00 0.00 0.00 25 1015.8
20260504024504 18 170 0.0 0.0 0.00 0.00 0.00 24 1015.7
20260504024003 18 180 0.0 0.0 0.00 0.00 0.00 23 1015.6
20260504023503 19 184 0.0 0.0 0.00 0.00 0.00 23 1015.7
20260504023003 19 167 0.0 0.0 0.00 0.00 0.00 23 1015.9
20260504022003 20 198 0.0 0.0 0.00 0.00 0.00 21 1015.7
20260504021504 20 190 0.0 0.0 0.00 0.00 0.00 19 1015.5
20260504021003 21 181 1.6 14.5 0.00 0.00 0.00 19 1015.5
20260504020534 21 202 11.3 16.1 0.00 0.00 0.00 18 1015.7
20260504020026 21 193 9.7 16.1 0.00 0.00 0.00 16 1015.6
20260504015502 21 191 4.8 14.5 0.00 0.00 0.00 16 1015.5
20260504015003 22 165 9.7 16.1 0.00 0.00 0.00 15 1015.7
20260504014503 22 213 4.8 14.5 0.00 0.00 0.00 15 1015.7
20260504014004 22 199 4.8 11.3 0.00 0.00 0.00 16 1015.7
20260504013503 22 152 4.8 12.9 0.00 0.00 0.00 17 1015.7
20260504013003 22 216 9.7 19.3 0.00 0.00 0.00 15 1015.5
20260504012503 22 208 9.7 19.3 0.00 0.00 0.00 15 1015.7
20260504012003 23 206 16.1 22.5 0.00 0.00 0.00 14 1015.5
20260504011504 23 196 14.5 27.4 0.00 0.00 0.00 14 1015.4
20260504011003 23 200 19.3 29.0 0.00 0.00 0.00 14 1015.3
20260504010503 23 203 16.1 27.4 0.00 0.00 0.00 14 1015.2
20260504005503 23 190 16.1 35.4 0.00 0.00 0.00 16 1015.2
20260504005003 23 199 20.9 32.2 0.00 0.00 0.00 17 1015.0
20260504004504 23 202 22.5 40.2 0.00 0.00 0.00 18 1014.9
20260504004003 23 212 20.9 32.2 0.00 0.00 0.00 19 1014.9
20260504003503 23 222 20.9 32.2 0.00 0.00 0.00 19 1014.8
20260504002003 23 193 27.4 51.5 0.00 0.00 0.00 21 1014.7
20260504001503 23 212 16.1 40.2 0.00 0.00 0.00 22 1014.7
20260504000003 24 202 29.0 49.9 0.00 0.00 0.00 24 1014.8
20260503235003 24 206 30.6 46.7 0.00 0.00 0.00 25 1015.0
20260503234503 25 219 29.0 46.7 0.00 0.00 0.00 24 1014.9
20260503234003 25 213 29.0 38.6 0.00 0.00 0.00 25 1014.9
20260503233502 25 210 32.2 45.1 0.00 0.00 0.00 25 1014.9
20260503233004 25 209 25.7 41.8 0.00 0.00 0.00 25 1015.1
20260503232504 25 214 25.7 38.6 0.00 0.00 0.00 25 1015.3
20260503232003 25 232 20.9 41.8 0.00 0.00 0.00 25 1015.6
20260503231503 25 228 25.7 40.2 0.00 0.00 0.00 25 1015.6
20260503231003 25 205 22.5 41.8 0.00 0.00 0.00 25 1015.9
20260503230503 25 201 27.4 37.0 0.00 0.00 0.00 25 1015.9
20260503230003 25 213 24.1 35.4 0.00 0.00 0.00 25 1016.0
20260503225504 25 206 20.9 32.2 0.00 0.00 0.00 25 1016.1
20260503224503 26 196 20.9 32.2 0.00 0.00 0.00 25 1016.1
20260503224003 26 214 19.3 32.2 0.00 0.00 0.00 24 1016.1
20260503223504 26 221 16.1 32.2 0.00 0.00 0.00 24 1016.3
20260503223003 26 193 20.9 33.8 0.00 0.00 0.00 24 1016.2
20260503222503 26 198 19.3 29.0 0.00 0.00 0.00 24 1016.3
20260503222003 26 221 17.7 37.0 0.00 0.00 0.00 24 1016.3
20260503221503 26 215 17.7 32.2 0.00 0.00 0.00 24 1016.3
20260503221003 26 187 17.7 29.0 0.00 0.00 0.00 24 1016.3
20260503220503 26 220 22.5 33.8 0.00 0.00 0.00 24 1016.3
20260503220003 26 211 22.5 41.8 0.00 0.00 0.00 24 1016.4
20260503215004 26 197 20.9 32.2 0.00 0.00 0.00 24 1016.4
20260503214503 26 213 19.3 35.4 0.00 0.00 0.00 23 1016.3
20260503214003 26 220 20.9 32.2 0.00 0.00 0.00 23 1016.5
20260503213503 26 220 24.1 35.4 0.00 0.00 0.00 22 1016.5
20260503213003 26 204 20.9 32.2 0.00 0.00 0.00 22 1016.6
20260503212503 27 213 19.3 32.2 0.00 0.00 0.00 22 1016.7
20260503212003 27 216 19.3 41.8 0.00 0.00 0.00 22 1016.9
20260503211003 27 190 19.3 32.2 0.00 0.00 0.00 21 1016.9
20260503210503 26 189 17.7 27.4 0.00 0.00 0.00 21 1017.0
20260503210003 26 189 17.7 33.8 0.00 0.00 0.00 21 1017.1
20260503205503 27 173 17.7 33.8 0.00 0.00 0.00 21 1017.1
20260503205004 26 150 20.9 32.2 0.00 0.00 0.00 21 1017.1
20260503204503 27 189 17.7 24.1 0.00 0.00 0.00 21 1017.3
20260503204003 27 214 16.1 32.2 0.00 0.00 0.00 21 1017.3
20260503203504 26 163 22.5 32.2 0.00 0.00 0.00 21 1017.4
20260503203004 26 155 20.9 33.8 0.00 0.00 0.00 20 1017.5
20260503202503 27 179 19.3 32.2 0.00 0.00 0.00 20 1017.5
20260503201504 26 164 19.3 38.6 0.00 0.00 0.00 20 1017.6
20260503200503 26 163 22.5 33.8 0.00 0.00 0.00 20 1017.7
20260503195003 26 187 24.1 40.2 0.00 0.00 0.00 20 1017.8
20260503194503 26 183 20.9 32.2 0.00 0.00 0.00 19 1017.9
20260503194005 26 197 22.5 35.4 0.00 0.00 0.00 19 1017.9
20260503193004 26 187 16.1 35.4 0.00 0.00 0.00 20 1017.9
20260503192503 26 187 16.1 37.0 0.00 0.00 0.00 20 1018.2
20260503192003 26 186 20.9 35.4 0.00 0.00 0.00 20 1018.2
20260503191503 26 182 22.5 35.4 0.00 0.00 0.00 19 1018.3
20260503191003 26 178 20.9 33.8 0.00 0.00 0.00 19 1018.2
20260503190503 26 178 20.9 33.8 0.00 0.00 0.00 19 1018.3
20260503190003 26 207 22.5 33.8 0.00 0.00 0.00 19 1018.3
20260503185004 26 193 19.3 29.0 0.00 0.00 0.00 18 1018.4
20260503184503 26 188 20.9 29.0 0.00 0.00 0.00 19 1018.4
20260503184003 26 201 19.3 29.0 0.00 0.00 0.00 19 1018.5
20260503183503 26 197 22.5 37.0 0.00 0.00 0.00 18 1018.5
20260503182004 26 181 11.3 37.0 0.00 0.00 0.00 18 1018.6
20260503181504 26 199 19.3 32.2 0.00 0.00 0.00 18 1018.5
20260503181004 26 200 17.7 25.7 0.00 0.00 0.00 18 1018.6
20260503180504 26 189 20.9 32.2 0.00 0.00 0.00 18 1018.7
20260503180003 26 206 20.9 32.2 0.00 0.00 0.00 18 1018.7
20260503175503 26 175 14.5 37.0 0.00 0.00 0.00 18 1018.6
20260503175003 26 195 14.5 27.4 0.00 0.00 0.00 17 1018.7
20260503174003 26 208 19.3 37.0 0.00 0.00 0.00 17 1018.6
20260503173503 26 185 20.9 32.2 0.00 0.00 0.00 18 1018.7
20260503172504 26 190 16.1 37.0 0.00 0.00 0.00 17 1018.8
20260503172003 26 206 14.5 27.4 0.00 0.00 0.00 17 1018.8
20260503171504 26 198 19.3 27.4 0.00 0.00 0.00 17 1018.7
20260503171003 26 182 19.3 29.0 0.00 0.00 0.00 17 1018.6
20260503170503 25 177 16.1 32.2 0.00 0.00 0.00 17 1018.7